Content
SEND FEEDBACK

Daily
Averages
Monthly
Summary
United States of America

RAPID CITY, SOUTH DAKOTA


Home > North America > United States > South Dakota
Elevation: 3162 feet     Latitude: 44 03N     Longitude: 103 04W

WEATHER
 
SELECT A DAY
Number of Records: 200,504;   Date Range: 1/1/95 - 9/16/14
 
SHARE

PRINT THIS DATA

[ ← Previous Day ]
WEATHER ALMANAC - FEBRUARY 20, 2013
[ Next Day → ]
[ °C ]   °F
Weather ElementAverageHighLow
Temperature22.6 °F33.1 °F (1:52 pm)10.9 °F (2:52 am)
Dewpoint11.6 °F18 °F (8:52 pm)3.9 °F (1:52 am)
Humidity64 %77 % (6:52 am)42 % (12:52 pm)
Barometer29.98 in30.11 in (1:52 am)29.82 in (3:52 pm)
Wind Speed17 mph23 mph (8:52 am)
Wind Gust29.9 mph (9:52 am)
Weather ElementAverage
Visibility10 mi
Wind DirectionSSE (157.8 °)

Weather ElementTotal
Precipitation---
Heating Degree Days43 (Base 65)
Averaged from 27 records on February 20, 2013
WEATHER CONDITIONS BREAKOUT
WIND DIRECTION BREAKOUT
WEATHER BY HOUR - FEBRUARY 20, 2013
[ °C ]   °F
Local TimeTemperatureDewpointHumidityBarometerVisibilityWind DirectionWind SpeedGust SpeedPrecipitationEventsConditions
1:52 AM12.0 °F3.9 °F70 %30.11 in10.0 miSE (140°)16.1 mphClear
2:52 AM10.9 °F3.9 °F73 %30.09 in10.0 miSSE (150°)10.4 mphClear
3:52 AM12.0 °F5.0 °F73 %30.08 in10.0 miSSE (150°)13.8 mphClear
4:52 AM12.0 °F5.0 °F73 %30.06 in10.0 miSE (130°)13.8 mphClear
5:52 AM12.0 °F5.0 °F73 %30.05 in10.0 miSE (140°)17.3 mphClear
6:52 AM10.9 °F5.0 °F77 %30.05 in10.0 miSE (140°)15.0 mphClear
7:52 AM15.1 °F7.0 °F70 %30.05 in10.0 miSSE (150°)12.7 mphClear
8:52 AM21.0 °F8.1 °F57 %30.02 in10.0 miSouth (170°)23.0 mph27.6 mphClear
9:52 AM24.8 °F8.6 °F50 %29.87 in10.0 miSouth (180°)23.0 mph29.9 mphScattered Clouds
10:03 AM24.8 °F8.6 °F50 %29.87 in10.0 miSouth (180°)18.4 mph25.3 mphMostly Cloudy
10:52 AM26.1 °F9.0 °F49 %30.01 in10.0 miSouth (170°)19.6 mph27.6 mphMostly Cloudy
11:04 AM24.8 °F8.6 °F50 %29.87 in10.0 miSouth (170°)21.9 mph28.8 mphPartly Cloudy
11:52 AM28.0 °F10.0 °F47 %30.00 in10.0 miSSE (160°)23.0 mph28.8 mphClear
12:52 PM32.0 °F10.9 °F42 %29.96 in10.0 miSouth (180°)19.6 mph25.3 mphClear
1:52 PM33.1 °F12.9 °F43 %29.95 in10.0 miSSE (150°)21.9 mph27.6 mphMostly Cloudy
2:52 PM30.9 °F16.0 °F54 %29.96 in10.0 miSSE (160°)19.6 mph26.5 mphOvercast
3:52 PM28.4 °F15.8 °F59 %29.82 in10.0 miSSE (160°)19.6 mphOvercast
4:52 PM27.0 °F16.0 °F63 %29.97 in10.0 miSSE (160°)19.6 mph25.3 mphOvercast
5:40 PM26.6 °F15.8 °F64 %29.84 in10.0 miSouth (170°)17.3 mphOvercast
5:52 PM26.1 °F16.0 °F66 %29.99 in10.0 miSSE (150°)16.1 mphOvercast
6:52 PM25.0 °F17.1 °F72 %30.01 in10.0 miSSE (150°)16.1 mphOvercast
7:52 PM24.8 °F17.6 °F74 %29.86 in10.0 miSSE (150°)12.7 mphOvercast
8:52 PM25.0 °F18.0 °F75 %29.99 in10.0 miSSE (160°)17.3 mphOvercast
9:52 PM24.1 °F17.1 °F75 %30.01 in10.0 miSSE (160°)13.8 mphOvercast
10:52 PM24.1 °F18.0 °F77 %30.01 in10.0 miSSE (160°)12.7 mphOvercast
11:08 PM24.8 °F17.6 °F74 %29.89 in10.0 miSSE (160°)13.8 mphOvercast
11:52 PM24.1 °F18.0 °F77 %30.01 in10.0 miSSE (160°)11.5 mphOvercast
Hourly data recorded from KRAP, located miles away from Rapid City, South Dakota







STORIES FROM OUR PARTNERS